Location: Antioch Baptist Church
(32.6696°N, 85.7327°W)
Time: 20:36:44
(UTC+00:00)

CENTAUR R/B - Pass Details

Date: 14 July 2020
Orbit: 756 x 1432 km, 63.5° (Epoch: 11 August)

Event Time Altitude Azimuth Distance (km) Brightness Sun altitude
Exits shadow 08:30:28 19° 152° (SSE) 1,894 3.8 -23.4°
Maximum altitude 08:33:17 28° 109° (ESE) 1,575 3.8 -23.0°
Drops below altitude 10° 08:38:28 10° 52° (NE) 2,708 5.9 -22.3°
Sets 08:41:34 0° 42° (NE) 3,777 7.1 -21.9°
